NETSAT-2

Last updated on Fri Aug 29 2025 00:03:48 GMT+0000 (Coordinated Universal Time)

1 46507U 20068X 25239.88237350 .00019641 00000+0 63800-3 0 9995 2 46507 97.8522 221.7638 0003518 337.5555 22.5530 15.31969152270622
UTC large
Height (km)
Speed (km/s)
/
Latitude / Longitude
Inclination (degrees)
Orbital Period (minutes)
Azimuth
Elevation
Range (km)
Doppler Factor

Next 0 passes for location: London (51.5072 / 0.1276)

Sorry there are no passes over London.